Regional Weather Roundup
Issued by NWS Charleston, SC

Current Version | Previous Version | Graphics & Text | Print | Product List | Glossary On
Versions: 1 2 3 4 5 6 7 8 9 10 11 12 13 14 15 16 17 18 19 20 21 22 23 24 25 26 27 28 29 30 31 32 33 34 35 36 37 38 39 40 41 42 43 44 45 46 47 48 49 50
000
ASUS42 KCHS 251927
RWRCHS

REGIONAL WEATHER ROUNDUP
NATIONAL WEATHER SERVICE CHARLESTON SC
300 PM EDT SAT MAR 25 2017

NOTE: "FAIR" INDICATES FEW OR NO CLOUDS BELOW 12,000 FEET WITH NO
SIGNIFICANT WEATHER AND/OR OBSTRUCTIONS TO VISIBILITY.

NOT ALL STATIONS ARE QUALITY CONTROLLED. USE DATA WITH CAUTION...
ESPECIALLY DEWPOINT OBSERVATIONS.

SCZ027-030-031-034>040-042>050-252000-
...SOUTHEAST SOUTH CAROLINA...

CITY           SKY/WX    TMP DP  RH WIND       PRES   REMARKS
N CHARLESTON   CLOUDY    75  52  44 SE16      30.27F
WATERFRONT PRK   N/A     66  58  75 SE8       30.28F
JOHNS ISLAND   CLOUDY    72  57  60 E10       30.28F
PINOPOLIS        N/A     73  54  49 S7        30.21F
MONCKS CORNER  CLOUDY    73  48  40 SE8       30.26F HAZE
SUMMERVILLE    CLOUDY    73  50  43 SE8       30.26F
BEAUFORT MCAS  CLOUDY    75  57  53 SE13      30.26F
BEAUFORT ARPT  CLOUDY    72  55  56 S9        30.26F
HILTON HEAD IS MOSUNNY   72  57  60 SE8       30.28F
WALTERBORO     CLOUDY    73  52  46 SE13G18   30.26F
ALLENDALE      MOCLDY    75  50  41 S8G15     30.22F

...SOUTHERN MIDLANDS AND PEE DEE...

CITY           SKY/WX    TMP DP  RH WIND       PRES   REMARKS
GEORGETOWN     CLOUDY    72  50  46 SE10      30.29F
KINGSTREE      CLOUDY    73  46  38 S5        30.25F
ORANGEBURG     PTSUNNY   74  51  44 S13       30.25F
BARNWELL       FAIR      77  52  41 SW10      30.23F
AIKEN          CLOUDY    72  50  46 S9        30.27F
MANNING        FAIR      73  50  43 S6G17     30.25F
COLUMBIA       CLOUDY    77  51  40 S13G20    30.28F
SUMTER         CLOUDY    75  48  38 S9        30.23F
FLORENCE       CLOUDY    75  49  39 S10G20    30.26F
MYRTLE BEACH   MOSUNNY   72  54  53 S14       30.30F
N MYRTLE BEACH CLOUDY    70  51  51 S9        30.29F

$$

GAZ063-065-086>088-099>101-113>116-118-119-134>141-150-252000-
...SOUTHEAST GEORGIA...

CITY           SKY/WX    TMP DP  RH WIND       PRES   REMARKS
SAVANNAH ARPT  PTSUNNY   76  51  41 E12       30.25F
HUNTER AAF     CLOUDY    75  55  50 SE15      30.23F
FORT STEWART   CLOUDY    75  53  45 SE13G18   30.22F
STATESBORO     PTSUNNY   78  54  43 SE8       30.23F
SYLVANIA       MOCLDY   N/A N/A N/A SW7       30.23F
CLAXTON        MOCLDY    75  56  51 CALM      30.23F

...CSRA...CENTRAL AND FAR SOUTHEAST GEORGIA...

CITY           SKY/WX    TMP DP  RH WIND       PRES   REMARKS
THOMSON        MOSUNNY   74  51  44 W8        30.26F
AUGUSTA-BUSH   PTSUNNY   77  52  41 S12       30.22F
AUGUSTA-DANIEL PTSUNNY   75  49  39 S9        30.24F
SWAINSBORO     MOCLDY    79  52  38 SE12      30.21F
VIDALIA        CLOUDY    77  52  41 S7        30.21F
EASTMAN        MOCLDY    80  34  18 S10G16    30.22F
HAZLEHURST     MOCLDY    77  56  47 S8        30.19F
ALMA           CLOUDY    77  55  46 SE9G18    30.21F
WAYCROSS       CLOUDY    81  58  46 SE7       30.20F
JESUP          CLOUDY    77  50  38 SE7       30.23F
BAXLEY         CLOUDY    77  61  57 SE6       30.20F
BRUNSWICK      MOSUNNY   77  55  47 SE12G17   30.24F
SAINT SIMONS   MOSUNNY   75  54  47 E10       30.25F

$$

SCZ027-028-034-036>038-045-046-048>050-GAZ119-141-252000-
...LAKE AND SUPPLEMENTAL COASTAL OBSERVATIONS...

STATION/POSITION TIME  TEMP    WIND        PRES    WAVE   SWELL
                       AIR SEA DIR/SP/G            HT/PER HT/PER/DIR
                 (UTC) (F)     (DEG/KT/KT) (MB)    (FT/S) (FT/S/D)
WINYAH BAY       1845   70     150/  9     1026.0F
LAKE MURRAY      1850   75        CALM     1023.7F
ACE BASIN NERRS  1830   74     130/  4     1025.0F
FORT PULASKI     1900   69 62  130/  9/ 12 1025.0
SAPELO ISLAND    1900   77     110/  9     1024.0

$$

ANZ835-935-AMZ111-154-330-350-352-354-370-450-454-472-252000-
...C-MAN AND BUOY OBSERVATIONS...

STATION/POSITION TIME  TEMP    WIND        PRES    WAVE   SWELL
                       AIR SEA DIR/SP/G            HT/PER HT/PER/DIR
                 (UTC) (F)     (DEG/KT/KT) (MB)    (FT/S) (FT/S/D)
BUOY 41004       1850   70 71  150/ 14/ 16 1025.3F   4/ 8   3/150/ 8
BUOY 41008       1850   66 63  100/  8/ 10 1024.5F   4/ 7   3/120/ 7
FOLLY BEACH CMAN 1900   64     100/  8/  8 1026.1F
CAPERS NEARSHORE 1908   64      80/  4/  8 1025.5F
FRIPP NEARSHORE  1908   64 61  120/  8/ 10 1024.7F


STATION/POSITION TIME  TEMP    WIND        PRES    WAVE   SWELL
                       AIR SEA DIR/SP/G            HT/PER HT/PER/DIR
                 (UTC) (F)     (DEG/KT/KT) (MB)    (FT/S) (FT/S/D)
5E ST. MARYS GA  1900      66                N/A     4/ 8
FRYING PAN BUOY  1910   70 73  180/ 14/ 17 1025.8
BUOY 41025       1850   71 77  220/ 16/ 19 1026.0F   3/ 5   2/130/10
CAPE LOOKOUT NC  1900   70     220/  8/ 10 1025.9F
BUOY 41002       1850   66 73   80/ 12/ 16 1027.5F   4/ 9   3/120/ 9
BUOY 41010       NOT AVBL
ST AUGUSTINE FL  1900   68 68  110/ 13/ 14 1024.3F


$$




USA.gov is the U.S. government's official web portal to all federal, state and local government web resources and services.